RH
8 7 7 6 5 5 5 5 5 4 4 4 4 3 2 2 1 1 1 1 1 2 2 2 2 3 3 3 3 3 3 3 4 4 4 4 4 3 4 5 11 20 30 41 45 42 38 35 33 31 30 31 26 23 24 24 26 27 28 25 23 27 30 33 36 39 42 48 56 53 52 62 67 74 80 79 79 77 63 51 58 63 64 64 61 61 65 69
10 9 9 7 6 6 5 5 5 5 5 4 4 4 3 2 1 1 1 1 1 2 2 2 3 2 3 3 3 3 3 4 3 3 4 4 4 3 4 5 9 18 31 41 43 39 36 37 35 30 29 26 21 18 19 23 23 23 24 22 21 25 29 33 33 37 41 47 60 57 49 57 61 64 72 80 82 76 63 58 62 57 56 63 63 61 64 65
11 11 11 9 8 7 6 6 5 5 5 4 4 4 4 3 2 2 1 2 1 1 2 2 2 2 3 3 3 4 3 3 3 3 3 3 4 3 3 5 8 16 32 41 40 37 36 37 33 28 28 24 21 17 15 19 20 20 19 19 19 21 26 31 31 35 40 45 57 58 52 62 62 59 69 78 83 77 67 69 71 60 54 60 63 62 64 65
13 12 12 11 10 9 8 7 6 6 5 5 4 4 4 4 3 2 1 2 1 1 2 2 2 2 3 3 4 3 3 7 4 2 4 4 4 4 4 5 7 14 30 40 36 33 33 33 30 28 27 23 20 16 15 16 17 18 17 18 18 18 22 27 30 30 36 45 49 52 60 67 59 58 65 67 77 80 73 68 64 62 60 63 65 63 66 66
14 13 12 13 12 10 9 8 7 6 5 5 5 4 4 4 4 3 2 1 1 2 1 2 2 2 3 3 4 5 17 27 14 2 3 4 4 4 3 4 7 12 23 35 34 30 30 30 29 27 24 21 17 14 16 15 15 17 17 18 16 16 21 25 27 25 33 45 51 57 58 59 60 61 60 60 71 77 78 69 54 56 59 64 67 62 64 63
16 14 12 13 13 12 11 10 8 7 6 6 5 5 4 4 4 3 3 1 1 2 1 2 2 2 3 3 4 10 30 36 15 3 4 3 4 4 3 4 9 12 16 25 29 29 29 28 26 24 23 20 16 14 15 15 15 16 18 19 15 14 20 24 24 25 33 41 49 58 53 58 65 58 50 56 71 76 77 71 59 59 57 59 63 58 58 60
17 15 12 12 13 13 12 11 10 8 7 6 5 6 5 4 4 4 3 1 2 1 2 2 1 3 2 4 5 10 27 26 8 4 4 3 4 3 3 4 8 13 14 18 24 27 26 26 25 22 21 18 15 14 14 15 14 16 19 19 15 15 18 23 24 23 25 25 34 48 53 57 51 42 44 49 66 76 71 70 68 64 59 60 64 57 54 58
17 17 14 12 12 14 13 13 12 10 9 7 6 6 5 5 4 5 4 2 2 1 2 1 2 3 1 5 3 6 23 19 5 4 3 3 4 3 4 4 8 13 15 18 23 26 25 24 23 20 19 18 16 15 15 15 14 16 18 16 14 14 18 21 22 22 18 15 19 31 41 40 31 35 44 42 59 75 69 71 71 61 60 61 62 62 58 55
17 18 15 12 12 13 14 14 12 11 10 8 7 5 5 6 4 5 4 3 2 1 3 1 2 2 1 5 2 11 27 15 3 4 3 3 4 3 4 4 6 11 15 21 24 24 23 21 21 20 20 20 17 15 16 15 14 16 15 15 13 13 19 20 23 27 19 14 12 17 32 32 28 34 38 40 51 66 68 69 71 67 66 62 56 62 67 58
18 18 16 12 12 13 14 14 13 12 11 10 9 6 5 6 5 5 4 4 3 1 2 1 2 1 2 3 2 20 32 14 5 5 3 3 4 3 4 3 4 7 14 22 23 22 22 20 21 21 20 19 17 15 15 15 14 16 14 14 14 12 17 18 25 31 21 20 14 15 38 36 31 35 34 37 38 51 69 68 70 76 76 73 67 67 73 64
18 19 16 12 12 13 14 13 12 11 10 10 10 8 6 5 6 5 5 5 3 2 1 2 2 0 3 2 5 24 28 15 8 4 3 4 4 3 4 4 4 4 11 19 19 20 22 21 21 22 20 18 16 14 15 16 14 16 15 14 14 13 18 20 26 30 25 34 22 17 50 47 32 34 31 33 35 50 71 63 59 74 84 83 78 72 69 66
18 19 15 12 13 13 12 11 10 9 9 9 10 10 7 5 6 6 5 5 4 3 1 2 2 1 3 0 6 21 20 12 8 3 5 4 3 4 3 3 4 3 8 14 15 16 19 19 20 21 22 20 18 15 15 18 16 16 14 14 15 14 22 25 25 24 20 31 23 22 62 65 44 38 29 32 38 46 57 50 46 65 85 81 74 73 65 62
18 18 14 12 12 10 8 7 6 7 7 8 9 10 9 6 5 6 6 5 5 4 2 2 2 2 2 2 9 15 11 9 7 4 5 4 4 4 4 4 4 3 4 9 12 13 14 16 19 21 23 22 20 17 16 17 16 15 14 15 16 14 21 24 24 23 16 28 29 25 51 62 57 44 28 33 37 37 44 45 43 56 80 84 72 73 73 64
18 17 14 12 11 7 5 4 4 5 5 6 8 10 11 7 5 7 7 6 5 4 3 2 2 3 2 5 12 10 6 6 6 5 5 5 5 3 4 4 4 4 3 4 7 10 10 12 17 19 21 20 19 17 15 16 14 14 14 14 16 14 17 20 23 23 19 32 34 27 37 43 51 41 25 36 36 36 52 51 44 52 73 85 75 68 73 69
17 16 13 12 9 6 5 4 4 4 4 5 6 9 11 9 5 6 8 7 6 5 4 2 2 3 1 8 13 5 2 5 5 6 6 4 4 6 6 4 4 4 4 4 5 8 8 8 14 17 18 17 16 16 14 14 13 12 11 12 14 14 15 17 20 20 20 29 27 30 36 30 44 49 35 38 35 44 69 61 47 53 60 68 76 76 70 67
17 15 13 11 8 6 5 4 4 3 4 3 5 9 11 11 6 6 8 8 6 5 4 2 3 1 3 17 19 7 4 4 4 5 6 5 8 16 14 5 5 4 4 4 3 6 6 7 13 15 15 15 15 14 14 12 11 11 10 11 13 12 13 14 16 18 19 23 21 28 32 26 43 52 38 33 34 46 67 64 54 58 63 62 70 79 68 58
16 14 13 10 7 6 5 4 4 3 3 3 5 8 11 11 6 6 8 8 7 6 5 3 3 1 4 14 16 12 8 2 5 9 7 5 12 25 21 12 10 7 6 5 3 6 7 9 13 14 14 13 12 12 13 12 11 11 10 11 11 10 10 12 14 18 19 19 17 21 24 26 35 41 43 41 37 42 53 63 63 61 72 74 65 66 63 58
16 14 13 10 8 7 5 4 5 3 3 3 4 8 11 10 6 7 9 9 7 5 6 3 1 6 10 10 10 14 11 6 12 15 9 5 11 20 18 17 19 15 13 11 10 11 11 12 14 13 13 12 11 11 11 11 10 10 10 10 10 9 8 11 13 15 17 16 16 21 23 30 36 43 53 44 33 41 44 51 66 69 74 76 64 59 63 62
16 15 13 10 8 6 5 5 5 3 3 2 4 7 8 7 5 7 9 9 8 11 19 13 5 14 19 13 13 14 13 14 17 15 12 8 7 9 12 18 20 17 16 15 15 15 14 13 13 13 12 10 10 9 9 9 10 9 9 8 9 8 7 9 11 11 13 11 13 20 21 30 41 44 49 44 37 43 40 39 60 78 81 76 63 55 60 61
16 15 13 10 9 7 5 5 5 4 3 2 5 7 9 17 18 17 15 9 10 20 29 21 11 16 18 15 18 18 16 17 15 15 16 12 8 10 15 19 18 15 14 14 15 15 13 12 12 11 10 9 9 8 9 9 10 9 8 8 8 8 7 7 9 12 13 10 11 16 17 25 33 32 39 48 48 46 44 46 61 76 83 84 74 61 60 62
16 15 12 11 10 7 5 6 5 5 5 4 7 9 17 34 36 32 27 14 10 16 21 20 14 16 18 18 22 22 18 16 13 16 19 14 12 15 18 17 15 15 13 12 13 13 11 10 10 9 8 10 10 9 10 10 10 9 8 9 8 7 8 8 9 12 14 12 12 16 21 26 27 27 32 38 46 55 55 53 59 67 73 80 83 80 70 65
16 15 13 11 11 7 5 6 4 5 6 4 9 10 15 33 39 35 32 24 19 15 14 19 17 17 22 23 23 21 19 18 14 17 19 15 12 14 16 14 13 14 12 10 11 10 9 8 8 8 9 10 11 10 10 10 10 9 9 9 9 8 7 7 8 11 14 13 12 17 23 27 26 26 30 37 51 70 69 60 59 56 54 63 77 89 85 74
16 16 12 12 12 7 5 7 5 5 6 4 8 9 10 27 37 31 25 27 29 19 13 16 15 17 21 21 19 16 17 18 13 17 18 13 12 14 16 13 11 12 11 10 10 9 9 9 10 10 11 10 9 10 9 10 10 9 9 8 8 8 7 8 9 9 11 10 11 17 24 29 28 24 32 49 65 76 76 71 70 59 48 52 65 78 80 78
16 15 12 13 12 8 6 7 6 6 8 7 9 9 12 23 27 21 20 27 30 19 14 16 13 14 17 19 17 11 15 17 12 16 16 11 14 16 16 15 12 10 11 10 9 9 9 11 13 11 10 10 9 10 10 9 9 8 9 8 8 7 7 8 8 8 8 9 12 15 23 31 31 30 40 55 69 79 78 73 74 67 50 43 52 66 68 71
16 15 13 13 12 10 8 7 9 9 10 10 10 11 14 16 15 14 20 29 29 19 15 15 12 13 16 19 18 12 17 19 12 16 16 10 14 16 14 14 13 10 10 9 8 8 9 11 13 11 10 10 10 10 9 9 9 8 8 8 7 6 7 7 7 8 8 9 13 13 18 29 34 41 51 60 70 77 71 66 66 58 44 36 50 71 75 75
16 15 13 13 14 12 8 9 10 9 13 14 13 15 13 11 13 12 18 27 25 16 13 14 12 15 19 18 17 16 20 18 12 17 16 11 15 16 12 12 12 11 11 10 9 8 10 12 12 10 10 10 10 10 9 9 7 8 9 8 7 7 8 7 7 8 7 8 13 12 15 28 38 44 50 60 70 64 52 57 60 48 39 35 45 66 71 72
16 15 13 12 14 13 10 11 9 12 31 35 22 17 12 12 13 9 19 28 22 13 11 12 13 16 20 16 16 18 18 14 14 16 14 12 15 15 13 12 11 12 12 10 9 9 10 11 11 10 10 11 11 10 9 8 7 8 9 8 9 9 7 7 7 7 8 9 11 12 16 26 37 41 42 51 67 62 46 53 63 53 44 36 36 52 61 63
16 15 13 12 14 14 12 12 9 12 32 35 19 12 11 13 11 12 30 31 16 13 12 11 17 20 20 17 17 18 16 14 13 13 12 12 14 15 14 14 11 10 10 9 10 10 10 10 10 11 11 10 10 11 10 8 8 8 8 9 9 8 7 7 7 7 8 9 9 13 16 23 36 41 38 41 59 69 51 47 65 67 55 43 37 48 61 61
15 14 13 12 13 14 12 12 11 10 16 16 11 11 12 13 12 20 40 31 11 14 15 13 19 23 21 18 18 19 17 15 13 12 12 12 14 15 14 14 14 12 10 11 12 12 12 12 12 12 11 11 11 12 11 10 10 9 8 9 8 7 8 7 8 9 9 9 10 13 12 22 41 45 43 47 62 73 58 48 65 74 66 56 44 42 49 53
15 14 12 12 12 13 12 11 11 11 11 9 10 11 10 12 18 27 35 27 14 15 16 16 19 21 19 16 17 19 17 15 15 14 14 13 13 15 16 15 15 14 11 11 13 12 12 12 12 12 11 12 12 11 11 10 10 9 8 8 8 8 8 8 8 8 11 12 10 12 13 23 41 47 48 58 64 66 62 56 56 57 60 60 51 44 41 42
15 13 11 12 12 12 12 11 10 11 10 10 12 11 12 19 27 32 27 19 15 14 15 16 16 18 17 14 15 16 15 15 16 16 14 12 13 14 16 15 13 13 12 11 12 11 11 12 13 13 12 13 12 11 10 9 9 8 7 8 8 9 9 10 10 9 14 14 11 14 15 22 46 62 67 73 71 63 57 54 49 47 54 58 56 54 50 44
14 12 10 11 12 11 11 10 10 10 10 14 14 13 24 32 31 29 21 14 14 13 13 14 14 16 15 13 13 12 12 14 14 15 13 11 12 11 12 13 11 11 11 10 10 9 10 12 13 13 13 13 12 12 10 10 9 8 8 10 9 10 12 12 12 13 14 13 11 13 17 35 60 73 80 86 82 71 59 54 55 56 58 58 59 61 58 54
13 11 10 11 11 11 11 10 11 12 15 20 20 23 39 41 31 26 18 11 12 11 10 12 14 14 13 12 12 10 12 13 11 13 12 10 11 9 10 12 10 10 11 10 9 9 10 13 14 14 14 12 11 13 13 12 11 9 10 11 10 11 14 16 15 14 14 12 13 13 23 52 69 71 82 86 76 66 56 52 54 57 57 57 60 60 57 62
12 10 10 11 11 11 11 11 12 17 22 25 28 36 46 41 29 22 14 8 9 9 10 12 13 12 12 12 11 10 12 11 10 11 11 10 10 9 9 12 11 11 13 12 10 9 12 16 16 14 14 13 12 13 14 13 12 11 11 10 11 12 13 16 14 13 14 10 12 18 29 50 62 71 84 83 73 66 56 50 51 53 55 54 57 59 58 65
11 10 10 10 11 11 11 15 19 24 28 29 34 44 48 42 29 18 12 10 10 10 11 11 11 11 13 12 10 10 11 11 10 10 11 10 9 9 10 10 11 12 12 13 13 11 13 17 17 15 15 14 14 14 13 13 12 12 13 10 11 13 14 14 11 11 12 10 18 34 45 52 59 70 78 75 77 77 67 61 57 57 59 56 59 62 60 64
10 11 10 10 11 13 17 25 29 31 33 33 39 45 44 37 26 17 13 11 10 11 11 10 10 10 11 11 9 9 11 11 9 10 11 11 9 11 11 9 10 12 13 14 15 13 13 15 16 16 16 15 15 15 13 13 13 13 12 11 12 13 12 12 12 12 11 14 28 43 54 60 61 70 78 75 77 79 77 72 60 56 63 63 63 61 56 60
11 11 10 12 18 24 30 34 34 34 36 37 40 40 35 30 24 18 15 12 10 11 11 9 9 10 11 10 9 9 11 11 10 9 11 10 12 14 13 12 13 14 14 15 15 14 14 16 16 14 15 17 16 14 14 14 14 13 12 11 12 10 11 11 13 15 14 18 30 39 48 57 58 71 84 79 76 79 80 76 67 68 76 75 72 65 61 69
11 10 14 22 32 36 36 34 34 35 36 38 39 36 30 26 20 16 15 13 12 10 10 9 8 9 10 9 9 10 10 10 9 9 11 11 14 17 15 15 16 15 15 14 15 15 14 15 17 14 13 15 14 13 15 15 15 15 14 13 12 9 10 13 14 16 16 16 25 33 44 58 66 80 89 84 82 84 82 81 85 91 90 83 80 76 72 74
9 17 29 34 36 36 33 33 35 35 37 40 40 32 24 20 16 16 16 14 12 10 10 11 10 9 10 9 9 9 10 9 7 8 12 12 15 18 15 15 16 15 14 14 14 16 16 15 17 17 14 13 14 13 16 18 16 16 15 13 13 11 13 15 13 14 13 12 21 32 50 73 87 92 92 87 86 87 86 87 91 94 89 81 77 72 67 65
19 38 48 40 34 32 32 34 36 36 38 39 36 27 18 16 16 16 18 16 16 15 15 15 12 10 11 11 9 8 9 9 6 9 13 13 15 17 15 17 19 16 15 15 14 15 18 17 17 19 16 16 18 18 19 20 17 17 16 13 13 14 15 16 14 13 14 16 19 28 56 87 95 90 90 89 88 88 89 89 90 92 88 83 79 72 65 64
32 49 52 44 39 34 31 35 37 38 39 35 31 25 19 18 17 16 18 19 18 18 18 17 14 12 12 11 9 9 10 11 9 11 14 15 16 17 17 18 20 19 17 16 16 16 18 19 19 19 17 17 20 21 21 21 20 19 16 14 16 16 15 17 19 17 16 20 16 17 53 92 90 81 86 88 88 89 88 88 90 92 91 86 85 85 78 67
37 47 47 43 41 34 31 37 39 39 39 33 27 24 21 20 19 18 19 19 18 18 19 19 17 16 15 13 11 10 11 12 11 12 15 16 16 18 20 19 19 21 20 17 18 20 19 20 18 17 18 18 18 20 23 23 23 21 19 21 21 19 17 16 18 20 15 18 15 10 45 87 86 79 85 84 83 83 81 84 86 88 93 88 79 78 76 65
43 47 44 40 36 31 31 39 40 35 31 28 24 22 22 21 19 20 20 20 20 19 19 20 20 19 19 18 16 13 11 12 13 14 15 17 19 20 20 19 19 20 19 19 22 22 19 19 20 20 20 20 19 21 24 25 23 20 21 26 25 22 23 17 18 20 15 19 21 15 45 86 85 77 82 79 78 80 80 84 85 85 92 90 74 62 59 58
46 45 42 40 34 29 34 41 39 32 27 24 22 21 22 22 20 20 20 20 20 20 21 22 21 20 20 20 20 17 15 15 16 16 16 17 20 20 19 19 18 20 22 24 27 24 18 20 25 25 22 22 24 25 26 26 24 19 18 24 28 26 24 21 20 18 16 25 28 23 49 83 81 75 83 80 77 83 83 83 86 86 86 82 69 56 49 48
43 42 42 42 35 28 34 41 36 31 28 24 22 22 23 23 22 22 21 20 20 20 21 21 21 21 21 21 21 21 19 18 18 18 17 18 20 20 18 19 20 23 23 23 25 24 21 21 25 25 23 24 25 24 25 26 23 19 17 20 27 28 27 25 20 18 23 30 36 40 56 75 76 73 78 78 76 81 83 83 88 86 74 62 52 43 42 43
41 41 38 39 38 31 33 38 37 34 30 24 23 23 22 22 23 22 21 20 20 19 20 20 19 20 20 21 21 22 22 21 20 20 18 18 21 21 20 19 21 21 19 19 21 22 23 24 22 23 26 26 25 22 23 23 19 18 18 18 23 28 30 27 21 27 33 30 41 57 55 56 64 64 66 73 73 75 80 83 88 84 62 46 41 35 34 36
40 43 37 34 35 33 33 34 34 32 28 26 25 24 23 24 23 23 23 22 21 20 21 20 18 19 20 21 22 23 24 22 21 22 21 21 22 22 22 22 22 20 19 21 23 23 25 24 21 24 27 27 26 23 21 21 20 19 20 22 24 26 31 32 30 36 36 26 37 54 47 44 53 55 63 74 73 74 78 76 82 82 59 37 33 32 30 28
46 49 45 39 35 34 34 32 30 29 27 28 28 27 26 24 24 26 25 23 22 21 21 21 20 19 19 21 22 22 23 24 23 23 23 23 24 23 22 23 23 23 22 23 25 25 26 23 19 20 22 24 26 25 23 23 23 23 24 25 27 28 32 35 35 39 37 30 34 43 45 54 60 60 69 76 73 76 76 71 76 80 68 47 32 29 31 30
52 50 47 45 41 39 36 32 31 29 27 29 30 29 27 26 27 28 27 26 26 24 21 21 21 20 20 22 22 22 25 28 28 28 27 27 26 23 22 21 22 23 22 21 24 25 24 21 18 17 19 23 24 25 26 26 25 27 27 28 29 29 31 34 36 39 40 39 42 39 42 61 72 69 71 75 75 74 70 71 75 78 79 67 40 30 33 30
45 47 46 44 42 41 37 32 31 29 28 30 32 30 28 28 28 28 27 28 27 25 23 21 21 22 22 22 23 28 32 32 33 34 32 30 28 25 23 23 23 23 21 20 21 22 20 18 18 21 21 19 21 26 29 28 28 26 26 32 36 32 32 35 37 41 43 43 44 36 38 63 78 70 67 72 72 69 68 73 72 71 76 63 38 34 37 31
37 43 43 40 40 41 36 32 30 29 29 30 31 32 30 28 28 29 28 28 28 27 24 23 22 22 22 25 29 34 32 29 32 34 31 28 26 24 25 25 25 25 23 20 21 20 18 18 20 23 21 18 21 27 29 29 28 24 25 33 38 35 33 32 32 41 49 49 46 40 42 61 73 68 67 70 69 70 73 73 72 72 66 50 39 42 42 36
32 37 37 36 37 39 36 32 29 28 28 29 31 31 30 29 29 29 29 31 31 28 25 26 25 20 23 32 35 32 25 21 25 27 25 24 22 21 22 23 23 23 20 20 21 19 18 19 20 21 21 22 24 26 30 29 26 27 33 37 38 39 40 38 36 41 48 51 51 50 51 54 59 63 66 69 73 73 67 68 75 70 55 48 52 54 51 47
Wind_Speed
15 15 14 14 13 13 12 11 10 10 9 9 9 9 10 10 9 8 8 10 11 12 12 11 10 8 6 5 4 2 1 2 2 2 1 2 2 1 2 5 8 10 10 10 8 5 5 8 10 12 11 10 11 8 5 5 7 6 7 7 9 10 9 10 10 10 10 8 9 12 12 10 9 11 4 2 5 4 4 5 2 1 3 5 6 8 9 11
17 16 15 14 14 13 12 12 11 10 10 10 10 9 9 9 9 9 8 9 11 12 12 12 11 9 8 6 5 2 1 1 2 1 1 1 1 1 1 4 8 11 11 10 8 5 5 5 9 9 11 9 6 5 2 3 5 6 6 7 10 8 6 8 9 10 9 8 9 11 12 9 9 9 2 4 3 3 4 4 3 0 3 4 4 6 9 11
18 17 16 15 14 13 12 12 12 11 11 11 11 10 9 9 9 9 8 9 10 12 13 13 12 11 9 8 5 3 1 2 2 1 1 1 1 0 1 3 7 11 13 11 10 6 0 6 7 5 7 9 6 4 3 1 4 5 7 7 10 8 5 8 10 9 9 7 6 8 11 9 7 7 4 3 3 4 6 3 3 2 3 4 4 4 7 10
19 18 17 16 15 14 12 12 12 11 11 11 11 11 10 9 9 9 9 9 10 11 13 13 13 12 11 9 6 4 0 3 3 1 2 1 1 1 1 2 6 10 13 12 10 6 2 5 5 6 8 10 7 4 5 6 5 3 6 7 6 8 4 7 10 10 9 6 6 7 8 7 6 7 6 4 3 4 6 4 3 2 2 4 4 5 7 9
19 19 18 17 15 14 13 12 11 11 12 12 11 11 11 10 9 9 9 9 10 11 13 13 14 13 12 10 8 5 4 2 3 1 1 1 1 1 2 2 4 8 12 12 10 5 1 1 4 7 8 10 8 4 4 5 5 6 4 5 6 8 3 5 9 11 10 6 8 8 6 5 5 6 6 6 6 5 7 7 4 2 1 2 4 5 7 8
19 19 18 17 16 14 13 12 11 11 11 12 12 11 12 11 10 9 9 9 10 11 12 13 15 14 13 12 8 9 7 2 4 4 1 2 1 1 2 2 4 7 10 11 10 6 2 2 4 6 7 10 8 5 5 5 6 6 4 4 8 8 3 6 9 11 10 6 6 6 5 5 5 6 6 7 7 6 9 9 5 5 1 3 4 5 6 7
19 20 19 18 16 15 14 12 12 11 11 12 12 12 12 12 11 10 9 9 10 11 11 13 15 15 15 13 11 13 9 3 4 6 2 2 1 2 3 3 4 6 8 11 11 6 0 4 6 7 8 9 6 3 7 6 6 5 5 4 7 7 6 7 8 10 10 8 6 3 3 5 6 8 6 6 5 4 7 9 5 2 1 3 4 6 6 6
19 20 21 19 17 15 14 13 12 12 11 12 12 12 12 12 12 11 10 9 10 11 11 13 15 16 16 15 14 12 8 8 5 6 4 1 0 1 2 4 5 5 8 11 11 5 3 5 5 7 9 9 8 4 8 8 7 5 4 5 8 8 8 10 9 10 11 11 8 4 6 8 8 8 6 7 8 4 5 7 7 1 2 2 2 5 6 5
19 20 21 20 17 16 15 14 13 12 12 11 11 12 12 13 12 12 11 10 10 10 11 13 14 17 17 16 15 9 7 11 6 6 6 3 2 1 1 4 5 5 7 11 10 5 6 6 5 8 9 9 8 6 8 8 5 5 5 8 9 6 8 11 9 10 14 13 11 10 10 9 8 8 6 6 6 3 1 4 7 2 2 1 1 3 5 5
19 21 22 21 18 16 15 15 14 13 12 11 11 11 12 13 13 13 12 10 10 10 12 12 14 17 18 18 15 8 11 16 9 8 8 5 5 2 1 2 4 6 7 9 6 5 7 7 10 9 6 5 7 7 5 7 7 7 7 8 9 7 5 7 6 9 15 15 13 11 7 5 7 9 8 6 5 5 4 5 6 2 3 1 0 2 4 4
20 21 23 21 18 17 16 15 14 13 12 12 11 11 11 12 13 14 13 12 10 10 11 12 14 17 18 19 17 10 14 18 12 11 9 7 7 4 3 2 3 6 7 5 5 7 8 8 10 8 6 5 6 5 5 9 9 7 7 8 10 9 7 7 5 7 13 13 13 9 3 4 7 9 10 8 5 7 4 6 4 3 4 2 2 3 2 4
20 22 23 21 19 18 17 16 14 13 12 12 11 11 11 11 13 14 14 13 11 10 11 12 13 16 19 20 19 16 19 17 13 12 10 9 8 6 5 3 2 4 5 5 5 8 9 10 10 8 8 8 9 9 8 10 9 7 8 8 10 9 6 7 5 7 10 9 11 8 3 7 7 9 13 11 4 3 2 3 1 3 4 3 3 3 4 3
20 22 23 21 19 19 17 15 14 13 12 12 11 11 11 11 13 13 14 14 12 10 10 11 13 15 18 17 16 22 24 18 12 12 11 9 9 8 7 5 3 3 3 4 4 7 10 12 11 10 10 11 12 12 13 11 9 9 9 7 9 8 7 5 6 8 9 9 9 9 6 4 2 10 16 11 6 4 3 2 1 2 3 4 3 5 6 4
20 22 23 21 20 19 17 15 14 13 12 12 11 12 11 10 12 13 14 13 12 11 9 11 12 13 17 18 19 27 27 19 13 12 12 10 9 9 7 6 5 3 3 2 2 5 9 10 10 10 11 10 10 12 12 9 8 10 11 9 6 9 7 7 6 6 8 9 7 8 9 5 3 13 17 11 7 7 5 3 3 2 5 6 5 6 6 4
20 23 23 22 20 19 17 15 14 12 12 11 11 11 10 10 10 12 13 13 12 10 8 9 10 12 16 17 21 28 25 19 14 12 13 11 9 8 8 8 6 4 3 3 4 4 6 8 9 10 10 10 11 13 12 11 11 11 11 8 7 7 4 7 6 4 4 5 5 4 6 8 6 9 13 14 10 7 5 4 4 2 4 4 4 4 3 4
20 22 22 21 20 19 17 15 13 11 10 9 9 10 9 8 9 11 12 12 12 10 8 8 9 12 14 14 20 25 22 20 17 13 14 12 5 3 10 8 5 5 3 3 4 4 5 6 8 10 9 11 13 13 13 14 11 7 6 5 8 11 7 5 4 3 4 3 4 3 2 6 4 6 15 19 14 8 6 6 6 1 2 2 4 6 4 5
20 22 21 20 19 19 17 15 13 11 8 7 8 8 8 7 8 11 12 12 11 9 7 6 8 10 14 16 19 20 16 16 17 14 16 13 6 4 12 7 3 5 4 4 4 3 5 6 8 10 9 10 10 10 14 12 6 5 7 8 9 7 4 1 1 3 6 4 6 5 2 4 6 9 15 14 13 10 8 10 9 4 3 5 5 7 7 5
20 21 20 19 18 18 16 14 12 10 7 6 7 8 8 6 7 10 11 11 10 8 4 5 7 5 9 14 12 11 11 12 16 15 16 15 11 12 11 3 4 6 4 5 4 3 6 7 8 11 10 11 8 8 13 8 5 5 6 7 7 4 3 2 1 4 6 4 8 5 3 7 9 8 8 9 15 14 12 14 12 7 5 7 6 6 8 8
19 19 19 17 17 17 15 13 11 7 4 4 7 8 6 3 4 6 9 10 10 8 2 4 10 7 3 5 2 5 9 13 16 15 13 14 14 13 8 4 6 7 6 9 8 4 6 8 10 12 13 14 13 11 12 7 8 8 6 5 5 8 8 5 2 5 3 6 8 4 4 9 10 9 8 12 16 13 13 16 15 10 7 6 7 7 9 8
18 18 17 16 16 16 13 11 8 5 1 5 8 10 10 7 3 2 6 8 10 11 4 1 11 8 5 0 6 12 14 15 14 11 11 13 11 9 8 8 8 8 9 12 12 7 8 11 12 14 14 12 9 9 8 9 8 7 5 6 10 10 6 2 5 6 5 11 7 2 2 4 5 8 9 10 12 11 11 10 12 12 7 6 8 9 9 8
18 17 16 15 15 14 12 9 5 3 3 8 11 15 13 7 2 3 6 6 9 13 7 4 8 5 3 5 8 13 13 11 10 8 10 12 8 7 9 9 9 10 10 10 11 8 8 12 13 13 10 7 4 1 7 8 7 7 7 9 10 8 2 3 1 1 4 8 2 5 3 3 3 9 11 12 11 13 13 8 9 12 11 9 7 8 11 10
17 15 14 13 13 13 10 7 3 2 4 7 11 15 12 7 7 7 6 5 7 11 8 8 11 9 10 10 7 10 9 8 9 9 11 11 9 9 9 8 9 12 10 8 9 9 10 12 11 8 5 7 7 5 8 8 8 10 10 9 7 6 7 3 1 2 1 1 3 8 6 2 4 8 11 15 15 16 15 11 10 13 14 12 7 7 13 13
16 14 13 12 12 11 8 5 1 3 5 7 9 10 10 12 11 7 8 5 7 12 9 11 12 10 11 9 8 10 11 9 9 11 13 11 9 11 9 8 9 11 12 10 10 13 12 9 4 1 3 6 8 7 7 8 10 10 9 10 9 6 10 1 2 4 4 5 2 6 4 1 6 11 12 16 18 19 17 15 16 15 15 13 8 8 12 12
14 13 11 10 9 8 6 2 2 4 5 6 7 5 8 12 8 7 11 6 5 10 9 10 11 10 11 8 8 8 12 10 9 12 15 11 11 11 10 10 10 9 10 11 11 14 13 8 2 3 4 5 8 8 7 7 11 12 11 11 10 10 11 3 3 9 9 5 5 3 3 4 5 11 13 16 16 18 16 16 16 16 21 17 7 7 9 9
13 12 10 9 7 6 5 1 3 5 6 5 6 6 7 9 5 9 12 4 6 10 8 11 9 10 13 9 7 9 11 8 8 14 15 10 14 11 8 9 11 10 9 8 10 12 8 3 3 5 5 6 7 8 9 10 11 10 9 11 9 9 8 7 8 10 9 5 10 6 3 5 4 6 10 10 12 15 14 14 14 17 22 17 7 6 8 8
13 11 9 7 6 5 4 2 3 6 6 3 5 6 7 7 6 12 11 6 9 11 9 12 10 11 14 11 11 11 8 7 7 14 15 11 15 11 8 7 10 11 8 6 10 12 6 1 2 7 7 7 8 9 11 12 11 5 2 5 6 5 6 10 11 10 11 4 7 6 3 8 7 8 8 8 10 8 10 14 15 16 18 15 12 9 6 8
12 10 8 7 4 4 4 3 6 7 7 3 4 6 7 8 8 13 9 8 9 11 11 12 9 10 11 10 14 9 7 12 11 11 13 13 14 12 11 7 9 10 5 7 12 9 7 5 3 5 6 8 9 8 6 6 9 7 6 7 9 6 9 11 10 10 11 6 2 1 3 10 8 4 3 6 11 10 10 14 16 16 16 15 13 8 5 8
11 9 8 6 4 4 4 4 7 7 4 4 8 7 8 9 10 11 5 5 8 14 13 14 10 9 9 10 15 8 4 10 10 9 10 12 13 10 9 6 9 10 4 9 11 5 6 9 5 5 9 10 7 7 3 5 10 8 8 11 11 9 10 7 7 12 12 9 3 1 1 5 6 2 3 4 9 11 10 12 15 16 15 12 10 7 6 8
10 9 7 5 4 4 4 5 7 7 5 7 8 7 8 8 8 8 5 4 9 11 11 14 13 11 10 12 15 9 6 7 6 7 10 11 13 13 11 8 8 9 5 10 12 3 2 7 6 4 8 10 11 10 7 8 12 11 12 11 11 10 10 10 11 9 9 8 5 4 7 2 6 3 4 5 7 9 8 9 12 14 14 13 10 9 8 7
9 8 6 5 5 4 5 6 7 6 5 7 7 7 7 7 7 5 7 4 7 9 10 12 12 12 12 14 13 9 11 9 2 8 11 9 13 15 13 10 7 7 6 10 12 6 2 5 6 4 7 9 11 9 8 7 9 12 12 11 12 11 12 15 13 8 11 8 6 9 7 5 8 0 3 3 3 5 6 7 9 10 10 11 11 9 9 7
8 8 6 5 5 4 5 6 7 7 8 7 6 7 6 6 6 8 5 5 7 10 10 11 12 13 15 16 13 10 13 12 6 9 11 9 12 13 11 10 8 7 10 12 13 9 4 5 4 3 6 8 9 8 7 4 5 8 9 11 12 9 10 11 7 7 7 5 9 9 2 11 8 4 3 4 2 2 3 5 7 8 8 8 9 9 8 6
8 6 5 5 5 5 5 5 6 7 9 7 8 9 5 3 9 10 4 4 7 9 10 12 14 15 15 15 13 10 12 13 9 10 12 11 12 12 12 13 11 9 11 12 12 10 8 5 2 3 5 5 6 8 6 6 8 9 9 11 11 6 7 7 4 6 6 6 12 6 8 12 8 9 8 5 3 1 3 5 5 7 9 8 6 6 7 9
7 5 4 4 5 6 6 6 7 8 9 9 10 10 3 4 10 13 8 4 6 9 11 13 15 14 15 16 14 9 10 13 10 11 13 12 12 12 12 14 12 7 8 9 8 8 6 2 3 5 4 2 4 8 6 6 6 7 6 9 8 6 5 4 4 5 6 9 9 2 10 9 8 9 6 3 1 1 3 5 6 7 9 9 7 5 8 10
5 4 4 4 6 7 8 8 8 9 9 10 11 6 3 9 12 12 9 3 7 9 11 13 14 14 15 17 15 10 11 12 10 12 14 12 12 12 12 12 11 8 7 9 5 6 3 3 5 5 1 2 5 7 6 7 7 7 7 7 6 7 5 4 5 5 6 9 6 6 7 6 8 7 6 4 3 4 5 6 7 9 10 10 9 8 9 9
4 4 4 5 8 8 9 9 9 9 9 12 10 2 7 14 12 5 2 7 8 9 12 12 13 15 15 15 14 12 11 9 10 13 12 13 13 12 13 14 11 10 8 7 7 4 4 3 6 4 3 4 5 5 3 6 5 5 7 7 6 8 7 9 10 10 10 10 4 9 8 7 9 8 5 5 7 7 7 9 8 9 11 12 12 11 10 10
3 4 5 7 9 9 10 9 10 10 11 12 6 6 9 11 7 2 3 5 8 12 14 13 13 13 13 12 12 12 11 6 9 13 11 14 13 7 7 8 11 10 6 4 5 5 5 2 3 5 6 5 5 5 5 6 6 6 7 8 9 10 10 11 11 10 9 7 3 10 10 11 11 7 4 5 7 5 7 9 10 10 10 11 13 14 14 14
3 4 6 8 8 9 10 9 10 12 12 10 2 6 8 8 5 3 2 0 6 11 13 14 15 13 11 12 12 12 11 7 11 15 11 10 8 3 1 3 7 7 3 4 4 5 5 3 2 5 7 4 3 7 6 5 5 6 9 12 12 10 8 7 8 7 7 4 4 10 12 11 8 5 4 4 6 4 5 9 10 10 9 10 12 15 16 17
4 5 7 8 8 8 9 9 12 13 11 6 2 6 8 8 6 4 4 3 8 11 14 13 13 12 10 9 11 12 13 12 12 14 10 7 5 4 4 2 4 7 5 4 5 4 5 5 2 3 5 2 4 7 6 6 3 5 11 14 13 8 4 6 7 6 6 5 2 10 11 7 5 5 5 3 4 3 4 6 5 6 8 8 9 12 14 15
5 6 6 6 6 7 9 10 13 12 7 3 7 8 6 5 3 2 4 5 5 8 11 9 8 10 12 7 10 13 14 13 12 12 10 6 5 4 6 5 4 5 6 7 6 4 3 5 3 2 4 4 4 4 3 3 5 9 13 15 13 7 7 11 11 8 8 7 3 5 6 5 5 6 3 1 1 0 2 4 3 6 10 12 12 14 14 13
8 7 3 3 3 5 9 12 12 10 5 3 8 8 3 2 3 3 3 1 2 4 4 9 7 8 9 7 10 14 13 11 9 10 10 7 4 4 4 5 3 2 5 6 7 5 2 4 4 2 4 6 3 0 6 7 9 13 13 14 14 10 11 12 11 11 10 7 4 0 3 3 4 4 2 1 1 1 1 4 5 7 10 13 15 16 16 16
13 6 6 9 6 5 10 13 10 7 3 5 7 7 4 2 3 5 4 2 3 5 3 8 5 3 6 7 9 13 12 10 9 8 10 8 5 4 5 6 3 1 3 5 4 5 2 3 6 5 6 5 3 4 5 9 11 13 13 12 11 11 13 11 8 11 14 11 10 7 1 5 3 1 1 1 3 2 3 6 6 6 8 10 13 15 16 18
12 3 8 9 8 8 11 11 6 5 9 9 6 5 3 4 4 5 4 1 3 4 3 3 2 3 3 5 4 11 13 8 6 7 7 6 5 4 5 5 5 3 4 4 2 3 4 5 8 9 8 9 5 2 6 11 10 8 6 7 8 10 12 11 9 13 16 15 15 13 2 5 3 2 2 4 5 5 7 9 8 8 8 10 11 12 15 17
8 2 10 8 6 9 11 10 7 8 11 8 5 6 4 3 3 3 4 1 1 1 1 1 2 4 1 3 5 4 10 5 3 6 4 5 7 4 2 2 4 4 4 5 2 3 4 5 8 10 9 10 8 2 4 8 5 1 1 6 7 9 11 11 12 13 15 12 13 12 3 5 2 4 3 4 5 4 7 9 9 8 8 11 13 14 16 17
8 5 12 11 8 10 11 9 9 9 9 6 5 7 4 2 2 3 3 1 1 2 2 3 1 2 1 4 7 4 4 3 3 5 3 5 6 6 5 1 3 2 5 5 2 3 5 3 6 9 8 6 5 2 3 5 5 5 6 7 7 9 10 11 12 12 11 10 13 11 4 4 3 5 3 4 6 5 6 8 10 9 8 11 14 17 19 18
9 5 8 10 9 11 12 8 7 6 8 8 6 7 6 4 3 3 3 2 2 1 2 2 1 1 1 4 4 4 2 2 3 4 3 2 3 6 7 4 4 3 6 8 7 4 7 7 7 9 7 5 5 6 7 9 11 11 9 7 7 7 9 12 13 11 11 12 13 10 6 5 6 6 3 4 6 7 8 9 11 11 12 14 16 18 20 21
5 2 6 8 8 11 13 9 7 7 8 9 8 7 7 5 4 2 2 1 2 2 1 1 1 2 2 3 5 3 3 4 4 4 5 4 3 4 6 4 5 7 7 6 8 6 7 10 10 9 9 10 11 10 8 9 12 12 11 9 8 8 11 12 10 9 12 13 9 11 8 3 3 4 5 6 7 10 10 10 12 15 18 19 19 20 21 22
4 3 3 7 10 12 13 12 11 10 9 9 9 8 6 5 4 2 1 0 1 2 1 1 3 2 1 1 4 4 4 6 5 5 6 2 3 2 4 3 6 9 6 5 7 5 6 11 10 6 8 9 9 8 8 8 9 9 10 9 8 10 10 9 7 9 12 11 5 11 11 5 2 4 6 8 10 10 12 13 13 17 22 22 21 21 22 23
6 6 4 5 10 12 13 13 13 10 7 8 9 7 7 6 4 2 2 1 0 2 2 1 2 3 3 2 3 4 4 6 6 6 6 3 1 4 4 3 5 8 8 5 4 4 7 11 11 8 7 7 6 7 6 7 7 7 7 6 7 7 6 8 6 6 8 8 5 8 9 6 3 4 6 11 13 11 14 18 17 18 21 23 22 21 21 23
12 11 6 5 7 8 9 11 12 11 8 8 8 6 6 6 5 4 2 2 2 3 4 2 2 3 4 3 3 4 2 4 4 2 5 5 4 4 4 3 2 2 4 2 3 7 9 9 11 9 8 8 8 6 5 5 6 5 4 4 5 5 3 4 4 5 7 7 6 8 7 5 3 5 6 11 15 13 16 18 17 18 19 20 24 24 22 23
15 13 9 8 8 5 6 9 11 11 9 8 8 5 4 5 5 5 2 2 3 4 5 3 3 4 4 3 2 2 2 4 2 3 3 5 4 5 5 5 0 1 2 2 4 9 9 8 8 7 10 14 11 7 5 4 4 5 5 3 3 4 2 2 4 7 8 6 6 9 7 4 5 9 10 11 13 13 14 16 17 17 17 20 25 24 23 24
16 13 9 10 12 7 4 7 9 10 8 9 9 7 5 4 3 4 3 2 3 4 4 5 5 4 4 3 0 1 3 8 6 4 7 7 4 5 5 6 5 4 5 5 4 6 7 8 6 6 11 13 7 7 5 4 4 8 6 3 2 2 2 3 6 7 5 4 6 9 7 6 8 12 12 11 11 12 14 16 16 17 18 22 24 23 23 24
17 15 10 11 15 11 6 6 8 10 9 7 6 6 7 5 3 4 5 3 2 3 3 5 5 5 4 2 5 8 9 9 9 11 14 13 10 8 7 8 8 8 6 5 4 5 7 8 8 7 8 8 2 5 4 4 7 6 1 4 3 2 2 2 4 6 6 4 6 7 6 6 9 11 12 13 12 13 15 15 16 19 22 22 22 22 22 24
Wind_Direction
335 329 325 319 313 308 303 300 296 293 293 294 296 296 291 287 283 275 257 238 227 221 218 218 217 213 210 210 216 239 326 3 3 3 22 30 29 51 151 167 164 169 174 173 166 158 122 61 24 4 345 317 314 303 257 308 339 346 343 355 12 17 24 17 10 13 4 359 1 358 20 28 29 48 46 339 8 27 52 22 350 151 161 172 162 163 175 179
338 334 329 323 317 310 303 297 291 287 283 284 288 290 292 290 286 279 262 241 228 221 216 214 214 209 206 207 206 216 274 335 332 5 34 45 49 40 152 172 166 167 172 175 175 162 115 24 336 312 306 308 312 319 266 255 336 342 318 353 29 24 25 25 6 7 2 353 1 348 1 17 32 53 24 309 10 30 19 0 335 308 160 172 169 163 177 186
340 337 333 327 321 314 306 298 290 285 278 276 278 280 286 287 286 280 267 248 231 223 216 213 211 206 203 204 198 201 232 296 296 39 52 65 78 44 144 174 170 167 172 180 183 170 138 303 305 297 304 306 283 330 353 307 347 333 315 350 28 21 24 30 5 1 1 355 8 338 350 9 14 36 12 348 32 354 337 328 314 289 163 167 181 173 182 188
341 338 334 330 324 318 311 302 293 285 277 272 270 272 276 278 283 279 269 253 236 225 217 213 209 204 201 201 197 194 304 310 268 85 63 60 69 83 105 166 173 171 175 183 186 174 242 271 302 306 306 312 283 283 315 341 357 296 336 356 5 2 10 20 357 354 359 354 4 345 355 3 354 19 5 6 48 344 317 316 334 283 176 166 179 168 181 187
341 339 335 330 325 321 314 306 297 287 278 271 266 265 266 269 275 275 270 256 241 229 218 213 209 203 199 198 193 163 81 11 228 147 59 70 60 67 97 146 168 175 177 183 192 172 136 271 306 295 298 319 314 303 303 345 339 277 325 349 344 352 349 8 346 348 0 354 359 349 349 354 353 11 352 5 34 9 316 317 35 85 156 166 173 156 173 181
341 339 335 329 323 320 315 309 300 291 281 273 265 261 260 260 265 269 268 257 245 234 221 214 209 203 200 196 186 159 129 111 198 184 148 87 60 45 96 128 155 174 176 182 189 168 99 302 295 300 301 307 309 331 352 351 316 305 358 347 340 343 356 20 343 345 359 347 350 331 338 8 350 353 0 5 11 12 332 320 48 94 135 132 154 146 156 175
339 339 336 330 322 318 314 310 303 294 284 276 267 259 255 254 256 259 262 257 246 236 223 216 209 204 200 194 188 176 179 248 210 186 176 101 89 49 95 121 145 169 169 178 176 155 275 274 279 298 300 317 323 301 350 349 278 314 19 349 327 333 358 10 336 343 355 346 352 326 11 20 337 357 9 2 23 22 332 321 8 60 130 121 157 143 141 168
336 337 336 330 322 316 312 309 303 296 287 279 270 260 252 249 249 250 255 254 246 237 227 218 209 206 200 196 194 185 214 258 215 189 189 151 149 69 103 120 141 167 167 177 168 157 265 260 280 303 288 315 343 298 319 316 276 312 354 324 317 322 333 337 334 344 350 354 360 342 354 350 344 15 4 11 57 60 335 326 324 336 106 80 165 142 140 167
332 335 335 331 323 315 311 307 302 297 288 281 273 262 252 245 244 243 246 249 245 236 228 220 211 207 201 200 194 177 233 240 208 199 200 201 233 166 124 123 141 162 170 179 171 189 243 244 285 319 299 300 325 312 303 299 329 349 299 315 317 305 326 341 348 333 333 346 351 337 336 344 356 18 11 21 54 79 82 301 294 275 130 43 83 139 144 165
330 333 333 331 323 314 310 305 300 295 287 282 275 266 255 244 240 238 239 243 243 235 229 222 213 208 203 201 187 173 243 240 223 214 205 206 228 224 169 140 140 157 173 183 191 230 235 261 292 305 303 302 307 307 292 284 337 339 291 310 306 284 303 338 346 313 323 340 346 342 335 359 4 0 7 2 19 84 140 246 274 241 207 169 188 208 169 193
329 330 332 330 322 316 311 305 299 293 285 279 272 267 257 244 237 235 233 236 238 235 228 220 215 209 204 201 185 188 241 238 225 212 206 208 219 232 212 175 156 165 169 186 242 249 234 273 291 274 260 294 299 293 290 287 314 325 296 300 299 304 301 305 316 305 324 334 334 339 324 342 352 356 351 334 19 99 171 256 272 211 200 165 209 248 217 225
327 329 331 328 322 318 313 307 298 290 284 275 268 265 258 246 236 231 230 231 233 233 227 221 218 209 207 203 193 211 232 229 224 209 205 215 216 230 227 207 190 185 176 187 257 262 254 266 262 255 267 288 289 285 302 303 300 288 282 295 304 312 299 295 298 306 333 338 330 338 289 294 322 357 344 324 352 106 212 278 292 172 188 199 210 265 298 264
327 330 331 327 324 321 316 309 299 289 281 271 263 258 255 247 235 229 228 227 229 230 226 221 216 211 208 197 200 226 231 227 228 213 210 220 220 226 231 230 217 224 214 190 228 256 260 256 243 255 272 281 283 286 305 307 285 269 269 292 311 292 245 264 303 311 339 354 345 346 336 309 316 348 337 318 307 289 291 291 291 115 182 240 242 261 286 300
327 331 331 328 327 325 321 314 303 292 281 268 257 250 250 247 234 228 226 224 227 227 225 221 215 212 202 189 204 226 228 227 229 220 220 223 224 230 233 241 235 237 261 246 245 242 250 245 238 257 267 274 280 285 300 293 265 260 252 243 285 293 232 221 286 308 333 345 349 342 351 10 325 330 335 331 308 282 293 305 320 76 168 221 243 250 267 298
329 333 331 329 330 329 326 319 309 298 282 267 253 244 243 245 234 225 222 222 224 224 228 220 211 210 199 196 219 229 228 227 230 226 226 227 228 241 246 242 244 248 264 292 293 275 256 231 230 258 267 273 276 276 280 272 263 266 267 239 233 278 226 199 244 259 298 332 359 331 341 354 334 334 346 344 324 280 274 296 319 54 156 217 229 234 273 306
330 333 331 331 333 332 329 324 316 304 288 266 247 238 235 242 234 221 219 219 219 221 228 219 213 208 193 202 230 237 235 229 233 231 228 228 205 270 270 249 240 256 267 291 289 288 259 228 235 253 262 271 268 263 266 276 272 260 293 287 246 254 227 196 219 228 247 259 340 308 301 357 356 315 327 338 333 293 267 285 303 15 151 245 224 224 280 317
331 333 332 333 335 334 330 327 321 310 293 260 236 227 225 233 226 215 214 214 214 214 219 214 208 203 200 216 232 241 245 231 230 233 228 222 168 208 259 261 273 269 289 313 325 332 266 248 249 247 255 266 263 258 256 271 283 237 252 271 277 268 233 319 335 231 224 219 305 292 194 16 3 318 321 349 351 317 287 284 290 287 207 227 231 237 266 282
332 334 333 335 337 335 331 328 324 315 293 247 216 210 214 226 218 208 209 211 208 197 205 215 183 176 226 236 241 250 251 222 219 228 228 222 201 213 235 256 294 277 294 300 316 336 268 251 252 250 251 242 238 252 246 259 317 291 279 286 302 293 238 341 6 197 186 214 289 257 152 41 39 17 349 349 345 340 325 298 281 282 257 231 237 258 262 256
332 335 334 336 338 337 333 330 327 320 292 213 190 190 181 178 193 201 213 212 195 160 81 245 175 114 341 250 203 227 223 213 217 223 226 227 220 225 230 215 243 257 258 257 264 287 257 244 249 247 243 234 223 232 248 291 327 310 331 332 290 285 276 260 160 100 97 280 280 201 118 57 59 38 11 339 334 344 329 297 273 270 269 248 258 279 271 266
333 335 335 335 338 339 334 331 332 340 336 160 156 152 128 84 46 283 247 218 188 165 111 234 172 122 21 55 159 187 198 216 223 215 222 230 225 228 232 224 236 248 244 245 246 249 245 241 247 246 248 255 233 221 268 317 323 299 296 270 264 285 306 182 153 88 23 310 307 47 47 65 29 357 18 3 337 333 322 298 276 272 266 262 287 302 287 276
332 335 335 334 338 339 335 333 334 15 112 147 147 147 129 77 23 244 245 221 201 194 164 151 184 189 211 165 182 205 208 225 221 201 218 227 218 215 224 227 230 236 242 248 244 237 238 238 248 252 254 297 316 263 301 298 290 285 260 269 287 299 339 91 82 39 6 328 341 84 98 158 352 358 20 15 357 344 340 338 310 301 293 275 283 303 290 287
330 336 335 332 339 339 335 335 334 88 130 154 157 165 159 144 173 188 202 212 241 233 203 187 208 224 206 179 196 216 204 216 207 194 215 218 202 199 218 235 226 230 235 239 241 226 225 238 245 253 273 306 295 281 294 275 270 278 264 266 272 299 306 259 292 317 164 190 117 89 79 98 357 355 13 27 38 28 13 12 6 351 327 297 287 283 279 290
328 334 333 332 338 338 336 344 18 113 138 156 163 189 191 164 162 173 168 169 244 243 228 216 216 215 211 214 232 208 182 205 209 197 214 209 188 190 205 228 234 242 233 220 242 243 249 275 268 282 315 284 266 252 263 267 261 259 269 274 253 316 345 227 185 324 252 228 107 75 82 79 331 325 7 46 57 46 37 29 25 22 2 337 318 290 282 294
327 332 330 330 335 339 335 344 103 114 124 143 154 181 189 165 155 168 163 154 227 224 220 221 217 209 210 227 248 200 169 199 211 199 216 201 179 194 209 230 243 256 242 223 244 257 265 285 278 354 330 264 273 261 244 262 264 253 254 271 281 326 349 343 314 325 295 234 146 114 130 119 333 332 14 43 59 52 42 34 34 33 24 18 352 303 304 308
326 327 326 326 330 335 319 269 134 129 129 145 148 145 173 170 157 168 167 171 197 193 206 207 201 204 209 208 202 170 164 213 217 203 222 198 176 196 211 231 237 239 249 229 235 256 258 218 215 293 285 252 273 265 254 258 262 272 251 242 279 319 321 306 297 294 288 211 167 220 247 115 43 27 45 46 63 57 39 36 35 28 30 39 38 338 311 304
322 323 322 316 320 321 295 235 175 143 114 124 150 148 177 172 165 169 173 227 201 178 191 196 192 195 205 204 172 156 182 213 187 200 222 191 174 205 224 236 237 238 271 254 233 255 257 134 300 287 277 256 252 257 268 261 256 307 6 245 300 340 293 283 284 276 286 271 173 231 252 126 101 77 88 78 65 37 14 31 27 17 24 29 20 5 318 303
317 319 313 303 308 296 273 235 194 140 77 344 208 178 182 173 178 172 183 251 205 162 164 177 194 193 194 196 170 165 201 187 171 201 219 184 172 209 224 221 226 227 276 253 227 229 229 238 266 262 261 250 254 274 274 248 265 310 8 324 318 321 284 284 296 286 280 288 140 126 69 113 115 81 92 74 46 11 1 31 34 26 23 19 18 14 350 337
312 312 304 291 293 272 250 226 207 174 129 211 203 185 181 182 184 174 211 272 151 144 165 174 188 184 174 182 178 179 189 180 194 206 198 183 172 191 213 218 234 232 234 236 229 187 208 247 253 233 243 248 279 332 335 236 258 294 350 331 314 306 297 299 294 281 275 283 297 347 14 107 118 53 330 345 18 16 3 20 37 37 27 24 35 39 17 357
309 305 295 279 276 257 238 222 215 219 196 178 178 177 182 185 175 176 252 276 132 144 178 183 189 182 171 179 185 196 191 191 227 186 176 194 181 179 203 223 259 266 235 232 254 285 233 272 301 273 249 270 307 324 317 279 261 289 328 317 293 279 275 267 259 283 313 298 295 294 273 177 106 59 348 333 360 22 11 14 36 43 35 25 23 36 33 12
306 297 284 268 266 239 227 217 204 218 195 164 170 176 179 173 170 217 253 220 153 154 171 184 190 181 175 181 187 202 198 193 181 156 171 200 191 186 202 214 249 278 240 229 257 290 345 289 289 261 254 292 318 311 300 289 273 293 311 300 284 268 263 265 262 307 335 304 297 304 271 137 107 44 325 356 354 8 12 15 21 23 30 25 7 8 24 19
302 290 270 254 249 218 213 209 196 194 173 168 174 162 158 160 193 247 251 169 157 148 160 181 182 176 178 183 185 192 195 191 177 174 182 192 198 202 215 220 224 236 227 226 238 243 244 254 240 219 267 291 297 284 273 262 265 279 282 285 286 285 291 285 278 311 314 283 291 297 102 100 103 135 108 77 32 331 344 1 359 352 358 12 5 355 356 354
298 281 254 243 236 214 206 191 183 174 162 168 159 142 139 195 224 237 240 203 187 162 166 175 170 174 181 186 188 189 191 190 190 193 191 189 195 206 220 217 201 201 222 224 218 219 223 226 222 258 283 295 295 291 267 234 239 247 267 292 294 304 316 304 308 307 286 287 287 262 100 76 85 109 105 93 84 32 339 348 350 347 343 341 347 346 330 329
293 268 242 236 218 200 189 175 173 166 156 158 148 136 145 253 236 227 231 237 181 162 169 169 167 174 183 189 188 187 191 187 189 194 191 192 193 200 217 221 217 227 260 245 195 189 222 250 270 269 250 209 307 322 310 289 280 270 296 317 316 324 319 298 306 303 293 302 300 119 99 88 100 104 105 119 114 297 310 324 321 323 326 320 314 314 316 320
281 245 227 211 195 188 180 174 169 164 158 155 146 132 236 253 246 230 219 154 119 146 162 163 168 173 190 198 182 178 191 179 181 193 191 194 197 200 203 210 228 242 264 275 244 192 227 268 246 263 323 234 303 330 331 327 315 314 326 317 323 341 324 309 311 306 302 296 311 60 82 118 126 126 134 117 38 0 315 299 304 307 308 306 301 299 305 307
262 223 216 191 185 181 177 176 170 168 166 158 154 181 254 254 269 274 164 120 131 158 156 158 168 173 200 207 177 182 201 178 180 194 198 202 201 208 208 196 206 217 225 282 307 254 235 235 214 233 320 295 314 338 318 304 296 324 329 291 312 344 319 302 305 305 307 301 341 63 75 109 118 124 127 93 56 28 334 310 313 310 302 300 299 297 296 292
226 207 200 181 182 179 175 178 171 169 161 150 166 263 251 254 288 358 98 130 158 161 153 160 170 178 202 192 167 192 210 193 188 190 200 209 200 211 229 185 172 194 227 304 312 275 270 268 198 242 268 260 291 303 288 309 314 313 312 309 327 327 301 295 303 306 307 308 70 93 106 126 126 112 94 94 89 59 340 319 311 302 293 291 292 290 288 283
203 196 183 172 175 176 176 179 171 169 159 142 181 271 242 248 264 214 216 192 141 153 163 168 174 192 197 163 161 194 195 184 194 195 202 207 194 186 207 137 159 191 268 318 288 298 306 283 226 270 266 225 257 284 267 278 311 309 316 335 328 295 275 278 288 308 314 310 125 132 138 145 147 129 110 102 86 65 333 317 309 302 291 280 279 280 283 286
184 174 167 164 169 176 177 175 171 168 158 147 252 262 244 244 239 226 243 172 134 161 183 174 171 203 216 164 160 189 195 187 189 202 205 179 163 180 188 185 195 213 248 274 272 315 302 265 249 265 260 213 238 272 269 245 261 338 327 325 319 299 308 304 295 318 318 307 126 138 131 109 99 107 116 100 67 55 319 319 335 329 306 290 284 279 281 290
164 150 155 160 168 181 176 171 171 165 153 214 257 257 250 228 212 239 225 187 169 179 192 193 178 208 239 215 160 179 201 191 179 202 209 170 150 186 210 224 204 207 231 243 263 307 305 279 284 212 264 315 274 259 356 298 291 340 329 319 329 335 333 323 314 313 301 302 345 122 117 70 86 106 106 110 100 122 305 316 324 313 306 305 300 295 299 307
129 114 175 216 198 196 179 173 170 151 130 237 245 251 248 134 147 194 170 160 207 161 209 254 224 196 231 220 162 180 202 198 189 193 181 160 149 155 189 218 203 195 216 230 266 280 247 280 302 267 273 305 295 110 23 350 325 336 325 319 335 339 329 325 310 305 311 321 335 130 135 108 133 141 104 79 282 301 354 329 315 308 313 317 314 314 322 329
128 119 246 260 272 234 184 174 164 142 167 225 224 244 247 130 123 163 150 78 166 158 314 286 244 189 205 182 164 177 186 206 213 172 152 175 201 172 166 196 216 291 197 204 263 274 255 298 309 305 284 297 27 57 354 328 321 317 308 312 332 341 339 333 313 324 336 335 322 316 101 119 136 152 82 314 304 324 340 325 316 314 319 318 318 323 327 332
121 116 248 259 268 234 192 184 185 195 229 237 216 214 206 155 136 150 160 113 161 187 316 305 284 326 206 188 190 177 178 212 214 154 147 175 169 147 150 184 217 237 234 241 297 302 291 303 297 293 297 306 327 7 337 331 317 287 294 335 344 350 348 335 328 333 328 319 315 316 357 115 104 68 44 336 344 349 335 326 316 314 316 310 315 325 328 334
116 286 263 265 254 220 194 199 222 227 236 244 199 185 179 175 185 176 189 217 152 186 17 162 257 328 210 258 322 196 193 225 184 163 177 151 147 180 176 144 198 213 253 269 346 349 274 274 294 293 302 312 310 310 348 350 349 227 33 17 354 351 350 333 325 321 313 318 325 325 23 107 54 58 62 338 343 325 321 328 317 316 322 316 323 333 335 338
145 226 264 274 252 209 197 210 228 227 233 239 199 189 183 145 147 148 172 184 113 140 108 124 197 1 224 257 333 345 222 226 155 177 182 135 158 231 253 203 179 226 271 238 185 346 301 291 324 307 297 309 315 329 328 337 1 353 348 4 355 340 341 337 331 318 314 343 350 344 41 103 18 41 66 343 348 333 332 334 317 317 325 319 325 334 332 331
140 177 242 264 254 210 201 221 237 224 227 230 213 193 183 162 132 107 124 119 76 117 142 136 188 325 228 228 287 326 274 224 192 196 209 181 200 262 268 223 169 228 255 221 209 281 306 311 318 303 296 308 318 333 332 320 323 322 322 349 1 346 347 343 331 321 324 341 358 14 53 76 48 50 47 11 4 349 348 344 325 320 321 322 326 328 327 326
139 203 215 231 241 216 211 225 234 236 237 227 215 202 193 185 173 145 119 114 63 61 101 73 276 250 217 212 238 251 222 220 214 213 240 236 200 256 270 220 207 240 248 230 230 253 291 295 291 279 277 287 299 316 332 317 311 313 315 331 351 352 353 342 328 342 343 333 7 48 40 26 62 41 14 0 341 338 345 343 334 325 319 323 326 324 324 324
185 270 240 220 217 215 220 224 228 242 241 215 208 215 215 203 189 186 33 49 46 36 20 337 359 348 314 236 229 226 217 217 216 228 241 210 140 260 302 304 264 265 270 269 264 269 285 284 287 284 271 273 283 299 318 313 307 316 320 324 337 343 357 4 354 6 357 334 13 46 20 358 354 355 355 333 319 332 336 329 330 325 319 319 322 324 325 322
233 259 276 236 218 217 222 224 230 240 229 203 201 208 214 211 206 241 336 14 335 6 349 330 36 35 16 5 251 243 238 229 232 237 234 230 282 281 300 308 275 283 294 288 267 272 276 279 290 295 280 275 279 284 307 316 306 314 320 327 341 341 5 18 3 13 12 350 0 22 17 33 25 327 334 326 319 328 336 333 334 329 323 322 323 328 327 322
222 216 199 205 216 220 223 225 232 232 222 214 213 207 211 219 228 242 286 336 322 348 344 345 50 23 8 11 277 278 290 233 250 267 226 241 293 290 277 281 253 294 314 299 236 270 279 281 285 287 285 285 275 264 286 308 308 314 312 324 341 331 340 6 9 39 29 358 354 355 359 40 8 294 314 330 326 334 339 331 325 325 326 322 322 328 326 321
218 206 197 198 187 196 239 232 223 224 222 219 223 220 207 218 229 223 229 323 332 360 357 349 9 355 347 3 340 15 75 194 252 354 217 227 297 288 274 298 300 122 343 321 269 280 288 285 279 282 287 281 262 236 255 280 301 310 293 280 324 322 327 33 20 18 7 344 344 335 331 23 353 311 317 325 326 336 330 311 310 321 322 315 319 325 323 320
223 213 219 213 191 188 254 234 213 219 219 217 229 236 223 225 228 204 199 323 322 329 348 354 352 328 317 337 257 237 237 221 231 265 230 224 267 259 258 296 275 254 306 316 275 268 284 294 291 275 281 283 251 208 234 257 279 296 289 246 248 292 327 15 13 13 11 356 343 329 330 8 352 334 337 334 330 329 316 313 323 323 314 314 319 322 320 319
226 221 230 229 210 209 243 243 225 226 221 217 230 230 226 231 220 222 246 293 316 301 333 345 327 313 320 300 224 251 274 258 242 248 244 243 257 256 258 279 271 255 272 291 282 275 276 286 292 280 282 300 272 201 234 277 282 294 29 110 112 89 62 20 8 360 356 348 331 323 324 332 336 344 345 337 330 318 314 329 333 315 310 316 319 319 321 322